Theta_e
317 316 316 315 321 324 329 332 333 332 332 330 333 336 342 343 349 354 350 353 356 358 349 348 350 347 342 334 334 336 340 341 340 338 333 326 321 321 323 327 327 323 324 328 329 332 331 325 324
323 315 315 317 318 323 328 329 332 333 331 330 331 331 336 339 341 349 351 352 356 358 349 350 348 344 340 334 333 334 339 340 339 337 332 326 321 322 323 327 333 333 329 332 334 333 327 322 323
319 316 317 318 319 320 325 329 329 331 330 329 331 331 334 343 347 348 351 344 354 357 351 350 347 342 337 333 331 335 338 338 337 333 329 326 321 323 324 326 332 337 336 336 328 322 322 322 322
317 317 317 319 320 320 321 325 326 328 330 329 329 330 334 354 353 353 349 353 356 356 354 348 346 340 337 331 328 331 332 332 330 328 327 324 322 324 324 323 324 325 326 325 324 325 323 322 322
316 318 320 320 321 322 321 321 322 325 327 330 329 330 330 346 349 354 354 355 356 355 354 346 344 339 336 331 326 324 324 324 324 325 324 321 322 325 326 327 327 326 325 326 327 328 326 322 322
317 316 320 321 321 322 322 320 319 323 325 326 325 328 329 349 354 356 357 356 355 355 353 345 341 338 336 332 329 326 323 323 323 322 321 320 324 325 325 325 325 324 324 325 324 325 323 322 322
321 320 320 321 322 322 322 320 320 320 323 325 324 325 329 346 355 358 357 356 355 354 350 344 340 336 335 333 332 329 323 321 320 320 320 321 324 325 325 324 325 325 325 323 322 321 322 324 326
318 322 322 322 322 321 322 320 319 319 320 321 322 322 325 330 353 357 357 356 355 354 351 344 342 336 332 332 332 330 324 320 319 320 321 323 324 325 325 325 326 323 323 322 321 321 322 327 328
317 321 321 321 322 321 321 319 318 318 319 320 319 318 322 345 352 356 357 356 355 354 352 348 345 338 335 332 332 330 325 320 320 321 323 323 331 325 326 328 324 324 323 322 322 323 327 329 329
316 318 318 319 321 321 321 320 319 318 318 319 319 319 320 335 346 351 357 356 355 354 353 350 346 344 342 340 333 330 326 321 321 322 323 332 341 339 337 326 325 327 328 328 328 327 325 323 334
314 317 317 318 320 320 320 320 318 319 320 319 319 320 320 329 341 345 350 356 356 354 353 351 349 346 344 343 335 336 331 331 330 329 323 341 343 334 337 334 325 326 324 327 324 326 333 339 338
313 313 314 316 318 318 319 319 321 319 319 319 319 320 321 326 341 343 347 354 356 355 354 353 351 348 346 345 342 343 342 340 340 339 327 341 340 340 339 338 337 337 335 338 334 338 341 340 342
313 313 311 313 314 315 317 318 319 319 319 320 319 319 320 321 332 348 351 352 357 356 355 353 353 351 347 346 345 345 345 344 343 339 330 339 337 339 339 339 336 336 337 338 340 344 345 347 346
312 312 312 312 312 313 316 317 317 318 318 318 319 320 321 321 322 337 351 353 357 356 355 354 352 351 349 348 346 346 345 344 344 342 339 332 336 331 336 335 336 336 340 343 344 345 346 348 347
313 314 313 313 313 314 312 313 316 315 317 318 319 319 320 321 322 326 346 351 356 356 355 354 349 351 351 349 346 347 346 345 344 345 341 336 334 327 333 334 335 336 345 345 346 347 346 348 344
313 313 313 313 314 313 313 313 315 314 315 317 317 319 320 321 321 322 325 349 353 355 354 354 349 352 350 350 347 348 347 346 345 345 345 338 334 327 325 335 333 339 345 345 347 347 347 344 336
314 314 313 313 314 315 314 314 315 314 315 317 317 318 319 319 319 321 327 342 352 355 353 353 352 353 351 350 350 349 349 346 345 346 346 340 337 330 332 336 337 343 346 346 347 345 340 333 329
313 313 313 313 313 313 314 314 314 315 316 317 317 318 319 319 319 320 333 345 352 355 354 351 352 352 352 350 347 347 348 347 346 346 346 342 340 332 325 342 343 342 344 345 345 340 333 331 330
314 314 314 315 314 313 315 316 316 316 315 317 318 319 320 320 320 320 340 349 354 355 354 353 352 351 350 344 343 346 345 346 346 346 345 337 340 338 325 341 342 343 344 343 338 334 331 330 330
316 316 316 315 315 315 315 314 314 315 317 317 318 319 320 321 321 322 345 352 355 355 354 353 351 348 341 344 346 345 345 346 345 344 343 342 340 339 338 338 340 342 342 338 335 332 330 331 330
316 316 316 316 316 316 315 315 315 315 313 314 316 317 320 321 322 328 345 353 356 356 353 350 346 339 338 347 347 346 347 346 344 344 341 340 341 341 334 332 336 340 336 332 331 331 330 331 332
317 316 316 315 314 318 316 318 317 316 315 314 315 316 318 320 321 331 348 355 355 355 353 348 344 340 343 347 346 345 342 343 335 334 336 340 341 342 342 341 337 336 333 333 333 330 330 333 328
316 315 316 316 316 315 316 316 316 316 315 315 315 316 318 320 321 328 350 354 354 354 352 350 346 344 344 339 345 344 340 338 335 337 341 342 341 340 339 334 331 330 331 331 330 329 333 326 318
315 316 317 316 316 321 317 317 317 316 316 315 317 315 318 320 322 326 348 353 354 354 353 351 347 345 343 343 342 333 334 339 340 341 341 339 339 333 331 330 327 328 330 331 332 332 323 316 313
315 319 320 321 321 319 316 316 316 315 315 317 317 317 318 321 322 327 348 352 353 353 353 352 350 348 346 344 335 334 339 341 341 340 339 336 334 333 331 329 328 329 331 332 329 318 315 313 312
317 317 320 322 319 316 315 314 315 316 315 315 316 318 318 321 322 328 346 351 352 352 352 349 351 348 346 337 335 336 339 341 341 339 336 335 332 331 328 329 329 330 332 328 320 315 313 311 310
317 318 316 317 315 316 315 315 315 316 315 315 320 318 319 322 322 335 346 350 350 351 349 349 347 345 340 338 340 342 343 341 339 337 334 333 334 330 327 330 331 331 323 316 314 312 311 309 308
315 315 320 319 317 318 315 314 314 315 315 315 318 322 321 322 325 340 347 349 350 349 350 351 346 344 340 342 343 342 341 341 334 332 331 330 328 328 331 330 325 318 315 313 312 311 308 309 314
316 316 317 316 315 318 316 314 316 314 316 315 318 320 322 322 332 343 348 346 347 347 349 347 347 343 343 346 343 341 339 334 331 333 331 328 333 332 329 321 317 315 313 312 310 308 309 311 315
315 316 316 319 317 316 316 317 320 314 316 317 320 321 322 323 339 344 341 341 345 345 344 343 344 342 343 342 342 338 334 331 333 333 332 332 331 327 320 316 314 313 312 309 308 311 313 317 318
Wind_Speed
9 6 5 6 7 8 17 19 10 8 10 7 5 8 5 8 4 3 6 11 19 24 33 31 28 25 23 22 21 22 24 22 20 17 16 17 18 19 19 18 17 17 17 16 14 12 8 8 9
7 6 6 6 9 15 16 19 14 15 9 5 7 10 13 10 7 3 3 16 21 26 32 32 29 26 24 23 21 21 24 23 20 17 17 17 19 19 18 17 15 16 16 15 13 11 9 9 9
8 10 10 6 13 20 18 14 13 15 8 9 5 6 8 2 0 2 6 13 25 28 33 33 31 28 24 22 21 23 24 21 20 18 17 18 19 19 18 16 15 16 15 14 12 11 10 10 10
7 8 8 11 20 19 23 13 5 15 18 12 12 8 6 2 1 4 12 20 26 29 31 34 32 28 24 22 21 23 22 20 18 17 17 19 20 18 17 16 15 14 13 13 12 10 9 9 9
11 9 13 17 24 22 12 21 8 14 19 17 16 19 7 1 1 8 16 22 26 28 28 34 33 29 25 22 20 20 19 19 19 18 19 20 20 18 16 15 14 12 12 12 11 10 9 8 7
13 11 14 20 23 21 18 21 17 16 15 13 10 18 11 1 3 10 15 21 25 28 29 36 33 29 25 23 20 18 17 18 19 19 20 20 19 17 15 13 12 11 11 11 11 10 9 7 6
19 12 20 23 22 22 20 20 21 20 20 18 6 9 8 4 6 11 16 21 24 26 30 36 33 29 26 23 20 17 16 17 19 20 21 20 18 16 14 12 11 10 10 10 10 9 8 6 5
20 15 24 24 22 24 16 18 20 26 25 22 12 7 12 7 8 12 17 22 24 25 27 36 35 32 29 26 22 18 17 17 19 20 20 19 17 15 13 12 11 10 10 9 9 8 7 6 5
16 14 20 25 24 17 18 13 17 14 24 27 28 24 10 6 10 14 19 23 25 26 27 29 31 33 28 27 25 21 19 18 19 19 19 17 14 14 13 13 12 10 9 9 9 8 7 6 5
17 16 28 20 15 12 20 18 16 15 18 23 18 21 13 11 13 16 22 27 29 30 30 30 30 29 26 24 27 24 22 21 21 21 20 16 13 12 11 14 13 11 10 8 7 7 6 6 4
17 24 21 20 17 19 21 23 16 19 18 20 25 21 15 13 18 18 20 27 31 30 30 31 30 30 27 24 28 24 23 21 20 20 21 15 13 14 11 10 11 10 9 6 6 4 3 6 5
19 24 24 27 14 12 16 21 21 21 24 14 18 18 7 11 17 20 22 26 29 31 30 29 29 30 27 24 25 21 20 19 17 18 20 16 13 13 11 9 9 9 8 8 7 5 6 3 3
16 19 25 20 26 23 23 22 21 23 21 23 21 18 18 17 14 18 21 24 27 29 29 31 30 28 28 26 23 21 19 19 18 19 18 14 13 12 11 11 9 9 8 7 6 6 4 4 4
11 10 14 19 24 29 25 26 27 23 19 27 30 27 25 22 18 16 21 24 28 30 29 31 31 29 29 25 23 20 18 18 17 16 16 16 13 14 12 11 10 9 8 7 6 6 5 4 4
13 16 16 19 23 23 25 29 35 33 29 22 21 28 27 24 20 18 19 25 28 30 30 33 33 28 27 25 24 20 19 16 16 14 16 16 13 13 12 10 11 10 10 9 6 5 6 4 6
16 16 16 13 7 21 19 28 32 34 32 33 29 27 22 22 22 22 19 25 28 28 32 33 32 28 26 24 24 19 17 16 15 14 13 16 14 13 13 10 11 11 9 8 7 6 4 4 6
13 14 14 14 9 11 20 26 20 27 24 21 25 25 28 28 26 23 21 26 29 30 30 31 29 27 26 24 20 19 17 16 14 13 11 14 13 13 11 9 11 11 11 10 8 6 8 7 4
15 12 13 13 13 14 19 24 20 14 12 19 23 20 20 24 26 23 22 26 29 30 28 25 28 27 26 23 24 17 14 14 13 12 10 12 11 12 14 10 10 10 9 7 7 9 8 5 5
20 20 21 18 11 13 19 20 17 21 26 23 22 21 20 20 20 22 23 27 29 31 29 28 28 28 29 27 21 16 15 15 13 11 11 11 10 10 15 10 13 13 12 13 13 10 6 4 5
22 23 24 21 17 15 22 21 22 20 23 26 26 25 23 19 17 23 26 29 31 32 30 29 29 29 28 19 16 14 14 13 11 11 10 10 9 11 11 13 13 13 15 14 12 10 7 3 7
21 23 23 22 18 18 18 22 25 26 29 30 32 28 23 22 19 25 29 33 31 31 32 31 31 31 25 19 19 17 15 14 16 14 15 13 12 11 12 13 13 13 12 4 8 6 8 11 9
21 18 19 18 13 17 17 19 22 21 25 25 34 32 31 26 22 25 31 32 33 31 29 27 28 27 23 22 18 17 15 18 18 16 15 16 15 12 13 14 10 12 16 14 9 17 12 12 9
18 16 18 16 17 18 24 13 25 19 21 23 26 34 32 29 26 27 32 33 32 30 28 26 26 24 24 24 17 22 22 20 17 15 15 15 13 10 8 10 9 11 10 9 8 15 13 9 9
13 11 10 13 12 14 25 21 23 18 21 24 23 37 35 30 27 28 31 31 32 29 28 26 27 26 24 23 25 20 20 18 14 13 12 12 14 17 13 15 15 17 12 7 6 8 6 7 8
7 6 6 8 8 18 12 16 21 18 16 21 25 32 38 33 29 31 36 35 33 32 30 28 29 29 28 28 23 19 16 12 8 12 14 20 20 17 20 18 18 13 9 5 5 6 6 8 9
17 18 10 7 15 17 22 11 22 28 25 23 27 31 35 33 28 33 37 35 34 34 32 35 33 32 28 25 21 18 16 13 17 17 17 16 24 23 17 16 11 7 8 6 6 6 7 8 10
3 10 16 3 11 9 16 15 20 17 16 25 14 25 33 30 28 36 38 35 35 35 36 35 34 29 27 25 22 20 18 20 20 20 22 26 24 23 11 11 8 8 8 7 5 6 7 8 7
9 6 4 6 7 15 15 19 17 19 18 24 23 17 27 30 31 37 39 36 34 37 36 35 31 31 29 26 24 25 22 22 20 20 21 24 23 17 13 7 10 9 7 4 4 6 6 5 2
5 3 9 10 10 6 13 14 20 19 20 26 24 31 29 33 35 37 36 36 35 40 38 36 30 31 30 30 29 24 26 24 23 25 28 26 18 14 9 10 8 6 3 4 5 4 4 2 3
12 13 15 7 13 12 14 14 21 13 17 25 22 31 35 34 38 39 42 41 43 43 38 36 34 34 35 31 27 28 27 26 25 28 29 24 19 14 12 10 6 4 4 4 2 1 1 3 3
Wind_Direction
230 222 206 216 237 234 244 235 235 243 221 223 264 244 260 335 310 6 147 165 161 163 175 173 174 172 169 166 167 173 173 170 165 161 154 154 158 154 151 150 152 155 158 163 168 169 159 154 154
205 193 185 231 244 229 237 233 206 237 232 213 234 253 253 273 262 218 155 164 165 170 175 175 176 175 172 168 170 175 175 173 171 168 162 162 163 159 157 156 155 158 160 165 168 171 170 165 165
190 186 224 223 234 241 243 219 235 229 208 218 232 253 296 329 270 213 189 175 167 172 178 179 178 177 174 170 173 177 177 178 176 174 171 169 167 163 159 159 158 162 168 172 174 176 175 177 181
183 196 237 241 236 233 252 257 240 229 223 206 249 266 248 107 284 193 173 165 169 170 172 179 176 177 175 173 175 178 180 182 183 181 176 172 170 164 161 163 164 167 174 180 182 183 185 190 190
195 228 236 230 245 248 232 260 224 248 233 224 230 249 236 334 80 159 164 167 167 169 171 176 175 177 176 174 175 179 183 185 186 183 179 175 171 168 166 170 173 175 181 188 192 195 197 199 198
206 238 234 236 238 238 233 240 238 241 229 219 227 246 252 194 128 157 167 168 169 168 173 177 176 178 177 175 175 181 186 187 186 183 178 175 174 173 175 181 186 188 193 197 199 201 202 203 202
239 216 243 247 249 239 224 237 231 232 234 217 222 249 217 200 183 159 164 167 169 169 169 175 176 178 179 177 178 181 184 187 185 180 177 176 177 180 184 189 194 196 200 203 201 200 201 199 196
233 255 251 244 247 244 243 235 232 230 235 235 232 242 235 187 175 161 163 170 171 172 174 178 179 179 179 179 179 180 180 182 181 178 177 178 180 187 191 194 198 198 198 197 195 194 194 193 212
232 238 241 242 240 242 240 236 222 242 237 238 243 240 251 173 164 165 167 174 174 178 178 177 178 181 179 181 179 178 176 178 179 179 181 180 181 188 191 193 195 192 187 185 183 181 190 211 238
226 232 244 253 265 239 255 235 242 223 227 225 230 227 216 208 197 184 181 182 182 181 182 182 178 178 175 178 181 179 178 176 179 182 183 175 182 175 177 201 194 192 188 187 188 194 210 229 272
240 249 257 251 283 247 255 258 236 247 240 222 221 224 211 230 212 208 203 194 190 185 184 185 179 180 176 177 180 179 180 178 180 183 186 175 179 193 183 195 200 200 200 195 213 216 246 244 246
247 262 263 268 236 245 258 260 254 243 245 238 230 237 232 246 222 218 210 201 195 190 187 185 183 182 177 179 178 179 177 178 180 185 187 188 180 188 186 188 194 192 205 208 202 222 230 247 266
251 256 264 246 256 258 260 256 255 250 247 251 251 247 245 241 239 226 215 206 199 194 194 186 187 183 180 179 179 181 183 183 182 189 192 189 190 195 194 198 193 198 211 218 216 223 236 257 272
292 282 278 268 259 254 255 259 261 244 244 248 251 250 247 242 237 232 217 206 201 199 198 189 186 187 185 183 181 183 183 186 187 191 198 200 193 210 202 207 204 206 206 212 210 227 224 242 281
272 271 264 249 246 247 251 254 247 247 249 258 252 247 247 243 240 230 220 212 204 201 199 191 188 186 187 185 190 186 192 191 190 190 204 207 205 218 198 203 205 208 208 205 221 232 242 262 288
256 258 267 257 260 240 228 252 249 242 242 243 247 246 242 235 231 229 232 216 211 200 202 197 192 187 188 188 194 192 197 193 193 194 202 214 216 219 210 207 206 210 206 212 214 223 214 231 264
234 259 251 253 218 250 216 251 262 247 224 241 241 243 241 241 239 233 231 211 206 198 200 202 184 188 188 191 191 191 199 194 194 194 197 215 213 215 198 198 204 205 208 208 204 189 205 228 247
267 237 242 253 262 224 244 248 263 261 230 232 240 241 243 240 237 227 218 204 198 194 191 190 185 187 186 191 198 188 198 193 193 193 192 213 204 211 204 197 204 198 208 203 191 216 230 229 306
272 275 269 269 267 263 266 275 270 248 249 245 249 242 246 236 234 219 208 200 193 188 187 186 183 186 188 197 191 189 188 183 186 183 191 205 195 199 208 201 212 211 197 192 200 189 176 213 299
262 261 262 265 260 260 265 266 257 253 251 256 249 242 241 239 228 211 199 196 192 186 186 187 185 186 194 186 176 178 176 177 173 176 178 180 185 192 191 201 217 221 212 203 188 175 147 353 312
251 252 263 270 273 254 260 268 262 252 246 246 248 247 242 237 222 201 197 196 189 186 187 188 189 195 188 173 165 157 162 161 161 169 180 184 182 196 210 222 228 237 207 131 158 189 297 288 302
255 258 266 269 263 255 234 258 255 248 234 229 239 235 234 229 223 205 195 191 186 182 183 182 185 192 176 171 163 161 164 181 184 196 200 199 205 216 229 252 265 222 199 179 250 277 254 292 269
270 290 276 263 247 261 251 245 257 248 236 230 223 225 227 223 212 206 195 186 181 177 176 175 178 177 182 168 159 169 182 192 188 194 200 212 246 239 191 169 163 207 181 168 173 198 261 266 269
270 290 255 225 238 241 236 234 258 250 234 227 220 216 217 215 208 202 191 183 179 172 169 168 173 172 176 164 183 183 191 182 190 202 223 222 177 146 136 152 143 138 145 165 222 258 247 261 273
197 188 211 197 202 237 229 217 237 249 244 232 218 212 208 205 201 195 184 181 171 168 166 164 167 164 163 174 180 179 193 207 224 196 195 172 153 163 153 158 165 172 193 222 237 236 262 276 287
214 212 229 226 217 245 215 231 230 231 240 265 234 217 204 197 194 191 181 172 166 164 162 168 162 163 167 169 172 184 189 176 175 182 169 163 154 154 159 165 179 189 252 221 222 250 265 287 296
151 216 242 292 282 289 263 224 242 260 239 234 229 217 202 187 192 181 174 166 163 163 167 155 159 160 164 167 175 170 160 177 169 160 165 164 165 166 163 161 200 221 193 206 224 264 283 295 300
216 347 193 202 247 245 248 238 251 223 221 214 219 225 196 181 186 175 165 162 160 164 153 153 156 161 160 165 161 168 180 175 167 162 162 164 158 167 166 180 176 174 190 215 263 289 299 301 318
175 213 229 268 248 259 267 258 268 217 216 203 203 203 183 178 171 165 152 153 153 152 148 152 147 160 156 157 174 177 171 161 162 162 164 163 169 171 174 172 175 181 219 270 282 286 307 345 32
234 222 226 233 228 239 268 269 327 184 232 191 207 192 182 172 162 143 149 145 149 148 154 155 158 159 170 175 175 170 159 155 153 155 164 172 173 174 171 171 177 201 243 269 280 301 39 67 61